Weather History for 71772 - March, 2013

Change the Weather History Date:

Sunday, March 3, 2013

  Actual Average Record
Temperature  
Mean Temperature 43 °F -  
Max Temperature 45 °F - - ()
Min Temperature 41 °F - - ()
Degree Days  
Heating Degree Days 22    
Moisture  
Dew Point 35 °F    
Average Humidity 74    
Maximum Humidity 82    
Minimum Humidity 60    
Precipitation  
Precipitation 0.00 in - - ()
Sea Level Pressure  
Sea Level Pressure 30.23 in    
Wind  
Wind Speed 16 mph ()    
Max Wind Speed 25 mph    
Max Gust Speed -    
T = Trace of Precipitation, MM = Missing Value Source: Averaged Metar Reports

Daily Weather History Graph

Daily Weather History Graph

Search for Another Location

Airport or City:

Trip Planner

Search our weather history database for the weather conditions in past years. The results will help you decide how hot, cold, wet, or windy it might be!

Date:

Astronomy

Mar. 03, 2013 Rise Set
Actual Time 6:52 AM PST 6:02 PM PST
Civil Twilight 6:20 AM PST 6:34 PM PST
Nautical Twilight 5:44 AM PST 7:10 PM PST
Astronomical Twilight 5:07 AM PST 7:47 PM PST
Moon 12:20 AM PST (3/3) 9:37 AM PST (3/3)
Length of Visible Light 12h 13m
Length of Day
11h 09m
Waning Gibbous, 62% of the Moon is Illuminated
Mar 3
Waning Gibbous
Mar 4
Last Quarter
Mar 11
New
Mar 19
First Quarter
Mar 27
Full

Hourly Weather History & Observations

Time (PST) Temp. Windchill Dew Point Humidity Pressure Visibility Wind Dir Wind Speed Gust Speed Precip Events Conditions
12:00 AM 41.0 °F 33.9 °F 36.0 °F 82% 30.14 in - West 12.7 mph - N/A   Unknown
1:00 AM 41.9 °F 33.1 °F 35.6 °F 78% 30.16 in - WNW 19.6 mph - N/A   Unknown
2:00 AM 41.7 °F 33.7 °F 35.8 °F 79% 30.17 in - WNW 16.1 mph - N/A   Unknown
3:00 AM 41.5 °F 32.9 °F 35.6 °F 79% 30.18 in - WNW 18.4 mph - N/A   Unknown
4:00 AM 41 °F - 35 °F 73% 30.19 in - WNW 18.4 mph - -  
4:00 AM 41.4 °F 32.7 °F 35.4 °F 79% 30.19 in - WNW 18.4 mph - N/A   Unknown
5:00 AM 41.4 °F 32.1 °F 34.9 °F 78% 30.19 in - NW 20.7 mph - N/A   Unknown
6:00 AM 41.4 °F 31.6 °F 34.7 °F 77% 30.20 in - WNW 23.0 mph - N/A   Unknown
7:00 AM 41.4 °F 32.1 °F 34.7 °F 77% 30.21 in - NW 20.7 mph - N/A   Unknown
8:00 AM 41.9 °F 32.3 °F 36.0 °F 79% 30.21 in - NW 23.0 mph - N/A   Unknown
9:00 AM 41.9 °F 32.6 °F 35.2 °F 77% 30.23 in - NW 21.9 mph - N/A   Unknown
10:00 AM 42 °F - 36 °F 72% 30.23 in - NW 19.6 mph - -  
10:00 AM 42.3 °F 33.6 °F 36.1 °F 79% 30.23 in - NW 19.6 mph - N/A   Unknown
11:00 AM 42.6 °F 33.1 °F 35.8 °F 77% 30.23 in - NW 24.2 mph - N/A   Unknown
12:00 PM 42.8 °F 33.3 °F 35.8 °F 76% 30.25 in - NW 24.2 mph - N/A   Unknown
1:00 PM 43.2 °F 33.8 °F 35.8 °F 75% 30.25 in - NW 24.2 mph - N/A   Unknown
2:00 PM 43.7 °F 34.3 °F 36.1 °F 75% 30.24 in - NW 25.3 mph - N/A   Unknown
3:00 PM 44.8 °F 36.4 °F 36.5 °F 73% 30.24 in - NW 21.9 mph - N/A   Unknown
4:00 PM 45 °F - 36 °F 60% 30.25 in - WNW 20.7 mph - -  
4:00 PM 45.1 °F 37.1 °F 35.6 °F 69% 30.25 in - WNW 20.7 mph - N/A   Unknown
5:00 PM 45.7 °F 37.8 °F 34.3 °F 65% 30.25 in - WNW 20.7 mph - N/A   Unknown
6:00 PM 45.5 °F 38.3 °F 34.3 °F 65% 30.25 in - West 17.3 mph - N/A   Unknown
7:00 PM 44.4 °F 37.9 °F 35.8 °F 72% 30.27 in - West 13.8 mph - N/A   Unknown
8:00 PM 44.4 °F 37.9 °F 34.7 °F 69% 30.27 in - WNW 13.8 mph - N/A   Unknown
9:00 PM 42.6 °F 37.8 °F 32.9 °F 68% 30.28 in - WSW 8.1 mph - N/A   Unknown
10:00 PM 42 °F - 34 °F 64% 30.29 in - West 8.1 mph - -  
10:00 PM 42.4 °F 37.5 °F 34.0 °F 72% 30.29 in - West 8.1 mph - N/A   Unknown
11:00 PM 43.5 °F 38.9 °F 36.1 °F 75% 30.30 in - WNW 8.1 mph - N/A   Unknown